Date String (YYYY-MM-DD hh:mm:ss) UTC,Instrument flags,Ambient pressure (hPa),Sample flow (lpm),Bypass flow (lpm),Sample temperature (°C),Ambient temperature (°C),ASC tube jacket temperature (°C),LED temperature (°C),Box temperature (°C),Sample RH (%),Span deviation,Mass concentration (μg/m³),Mass concentration (μg/m³),Mass concentration (μg/m³)
DateTimeUTC,F1_M11,P_M11,Q1_M11,Q2_M11,T1_M11,T2_M11,T3_M11,T4_M11,T5_M11,U1_M11,ZSPAN_M11,X0_M11,X2_M11,X1_M11
2023-03-02 16:00:00,,0816.9,5.00,0.00,22.5,21.2,00.0,31.2,24.3,12.9,0000.0,0010.80,0007.01,0006.75
2023-03-02 16:01:00,,0816.9,5.00,0.00,22.5,21.2,00.0,31.2,24.3,12.9,0000.0,0010.84,0007.05,0006.80
2023-03-02 16:02:00,,0816.9,5.01,0.00,22.5,21.2,00.0,31.2,24.4,13.2,0000.0,0010.88,0007.08,0006.84
2023-03-02 16:03:00,,0816.9,4.99,0.00,22.5,21.2,00.0,31.2,24.4,13.3,0000.0,0010.90,0007.09,0006.85
2023-03-02 16:04:00,,0816.9,5.00,0.00,22.5,21.3,00.0,31.2,24.4,13.2,0000.0,0010.52,0007.10,0006.86
2023-03-02 16:05:00,,0816.9,5.01,0.00,22.6,21.3,00.0,31.2,24.4,13.3,0000.0,0010.50,0007.11,0006.88
2023-03-02 16:06:00,,0816.9,5.00,0.00,22.6,21.3,00.0,31.2,24.4,13.5,0000.0,0010.50,0007.10,0006.85
2023-03-02 16:07:00,,0817.0,5.00,0.00,22.6,21.3,00.0,31.2,24.4,13.5,0000.0,0010.37,0007.06,0006.81
2023-03-02 16:08:00,,0817.1,5.01,0.00,22.6,21.3,00.0,31.2,24.4,13.5,0000.0,0010.28,0007.04,0006.78
2023-03-02 16:09:00,,0817.1,4.99,0.00,22.6,21.3,00.0,31.2,24.4,13.4,0000.0,0009.50,0007.00,0006.73
2023-03-02 16:10:00,,0817.2,5.00,0.00,22.6,21.4,00.0,31.2,24.5,13.8,0000.0,0009.52,0006.97,0006.67
2023-03-02 16:11:00,,0817.4,5.00,0.00,22.6,21.4,00.0,31.2,24.5,14.2,0000.0,0009.51,0006.93,0006.62
2023-03-02 16:12:00,,0817.1,5.00,0.00,22.6,21.4,00.0,31.3,24.5,14.1,0000.0,0009.47,0006.90,0006.58
2023-03-02 16:13:00,,0817.3,5.00,0.00,22.6,21.4,00.0,31.3,24.5,14.0,0000.0,0009.55,0006.89,0006.55
2023-03-02 16:14:00,,0817.3,5.00,0.00,22.6,21.4,00.0,31.3,24.5,14.0,0000.0,0009.48,0006.87,0006.53
2023-03-02 16:15:00,,0817.3,4.98,0.00,22.6,21.4,00.0,31.3,24.5,14.0,0000.0,0009.47,0006.84,0006.51
2023-03-02 16:16:00,,0817.2,5.00,0.00,22.6,21.4,00.0,31.3,24.5,13.8,0000.0,0009.47,0006.81,0006.47
2023-03-02 16:17:00,,0817.1,5.04,0.00,22.7,21.5,00.0,31.3,24.5,14.1,0000.0,0009.40,0006.76,0006.44
2023-03-02 16:18:00,,0817.1,5.02,0.00,22.7,21.5,00.0,31.3,24.5,13.9,0000.0,0009.45,0006.74,0006.42
2023-03-02 16:19:00,,0817.1,4.99,0.00,22.7,21.5,00.0,31.3,24.5,14.0,0000.0,0009.43,0006.73,0006.40
2023-03-02 16:20:00,,0817.4,5.00,0.00,22.7,21.5,00.0,31.3,24.5,14.4,0000.0,0009.48,0006.75,0006.41
2023-03-02 16:21:00,,0817.0,5.00,0.00,22.7,21.5,00.0,31.3,24.6,14.0,0000.0,0009.50,0006.74,0006.43
2023-03-02 16:22:00,,0816.9,5.02,0.00,22.7,21.5,00.0,31.3,24.6,14.0,0000.0,0009.49,0006.75,0006.44
2023-03-02 16:23:00,,0816.9,5.00,0.00,22.7,21.5,00.0,31.3,24.6,13.8,0000.0,0009.46,0006.76,0006.47
2023-03-02 16:24:00,,0817.0,4.99,0.00,22.7,21.5,00.0,31.3,24.6,14.2,0000.0,0009.43,0006.77,0006.48
2023-03-02 16:25:00,,0817.0,4.99,0.00,22.7,21.5,00.0,31.3,24.6,15.3,0000.0,0009.54,0006.81,0006.49
2023-03-02 16:26:00,,0817.0,4.99,0.00,22.7,21.5,00.0,31.4,24.6,15.1,0000.0,0009.55,0006.82,0006.49
2023-03-02 16:27:00,,0817.0,5.00,0.00,22.7,21.5,00.0,31.4,24.6,15.3,0000.0,0009.52,0006.83,0006.50
2023-03-02 16:28:00,,0817.0,5.00,0.00,22.7,21.4,00.0,31.4,24.5,15.4,0000.0,0009.57,0006.84,0006.48
2023-03-02 16:29:00,,0817.0,5.01,0.00,22.7,21.3,00.0,31.4,24.5,15.1,0000.0,0009.79,0006.82,0006.47
2023-03-02 16:30:00,,0817.0,5.01,0.00,22.7,21.2,00.0,31.4,24.4,15.2,0000.0,0009.78,0006.81,0006.47
2023-03-02 16:31:00,,0817.0,5.01,0.00,22.6,21.1,00.0,31.4,24.4,15.1,0000.0,0010.08,0006.82,0006.47
2023-03-02 16:32:00,,0817.0,4.96,0.00,22.6,21.1,00.0,31.4,24.4,15.0,0000.0,0010.08,0006.82,0006.45
2023-03-02 16:33:00,,0817.0,4.99,0.00,22.6,21.1,00.0,31.4,24.4,15.1,0000.0,0010.05,0006.80,0006.43
2023-03-02 16:34:00,,0817.0,5.02,0.00,22.6,21.2,00.0,31.3,24.5,15.6,0000.0,0010.08,0006.79,0006.39
2023-03-02 16:35:00,,0816.9,4.98,0.00,22.6,21.3,00.0,31.3,24.5,15.5,0000.0,0010.04,0006.76,0006.36
2023-03-02 16:36:00,,0816.9,5.03,0.00,22.6,21.3,00.0,31.3,24.5,14.8,0000.0,0010.02,0006.75,0006.36
2023-03-02 16:37:00,,0817.0,5.00,0.00,22.7,21.4,00.0,31.3,24.5,15.4,0000.0,0010.01,0006.74,0006.35
2023-03-02 16:38:00,,0817.0,4.99,0.00,22.7,21.4,00.0,31.3,24.5,15.9,0000.0,0010.41,0006.72,0006.34
2023-03-02 16:39:00,,0817.0,5.01,0.00,22.7,21.4,00.0,31.4,24.5,14.7,0000.0,0011.16,0006.74,0006.33
2023-03-02 16:40:00,,0817.0,5.00,0.00,22.7,21.5,00.0,31.4,24.6,14.0,0000.0,0011.12,0006.73,0006.33
2023-03-02 16:41:00,,0817.0,5.00,0.00,22.7,21.5,00.0,31.4,24.6,13.9,0000.0,0011.02,0006.75,0006.33
2023-03-02 16:42:00,,0817.0,4.99,0.00,22.7,21.5,00.0,31.4,24.6,13.7,0000.0,0011.00,0006.77,0006.33
2023-03-02 16:43:00,,0817.1,5.00,0.00,22.7,21.5,00.0,31.4,24.6,13.4,0000.0,0010.78,0006.76,0006.33
2023-03-02 16:44:00,,0817.0,5.00,0.00,22.7,21.5,00.0,31.4,24.6,13.3,0000.0,0010.60,0006.72,0006.33
2023-03-02 16:45:00,,0817.0,5.00,0.00,22.7,21.6,00.0,31.4,24.6,13.8,0000.0,0010.60,0006.72,0006.34
2023-03-02 16:46:00,,0817.0,5.00,0.00,22.7,21.6,00.0,31.4,24.6,13.9,0000.0,0010.52,0006.70,0006.34
2023-03-02 16:47:00,,0817.2,5.01,0.00,22.8,21.6,00.0,31.4,24.7,14.1,0000.0,0010.55,0006.69,0006.34
2023-03-02 16:48:00,,0817.0,5.00,0.00,22.8,21.6,00.0,31.4,24.7,14.6,0000.0,0010.73,0006.70,0006.36
2023-03-02 16:49:00,,0817.0,5.01,0.00,22.8,21.6,00.0,31.4,24.7,14.7,0000.0,0010.31,0006.73,0006.38
2023-03-02 16:50:00,,0817.0,5.01,0.00,22.8,21.6,00.0,31.4,24.7,15.0,0000.0,0009.66,0006.75,0006.41
2023-03-02 16:51:00,,0816.9,4.99,0.00,22.8,21.6,00.0,31.4,24.7,14.8,0000.0,0009.69,0006.78,0006.44
2023-03-02 16:52:00,,0817.0,5.00,0.00,22.8,21.5,00.0,31.4,24.7,14.7,0000.0,0009.63,0006.78,0006.47
2023-03-02 16:53:00,,0817.0,5.00,0.00,22.8,21.5,00.0,31.4,24.7,15.2,0000.0,0009.73,0006.78,0006.49
2023-03-02 16:54:00,,0817.0,5.01,0.00,22.8,21.6,00.0,31.4,24.7,15.6,0000.0,0010.37,0006.80,0006.51
2023-03-02 16:55:00,,0817.1,5.00,0.00,22.8,21.6,00.0,31.4,24.7,15.5,0000.0,0010.46,0006.84,0006.53
2023-03-02 16:56:00,,0816.9,5.00,0.00,22.8,21.6,00.0,31.4,24.7,16.1,0000.0,0010.53,0006.87,0006.55
2023-03-02 16:57:00,,0816.8,4.99,0.00,22.8,21.6,00.0,31.4,24.7,14.8,0000.0,0010.60,0006.89,0006.56
2023-03-02 16:58:00,,0816.8,5.00,0.00,22.8,21.6,00.0,31.4,24.7,15.3,0000.0,0010.65,0006.90,0006.58
2023-03-02 16:59:00,,0816.8,5.00,0.00,22.8,21.6,00.0,31.5,24.7,14.9,0000.0,0010.60,0006.90,0006.59
